Albany, NY

1:00 AM EST on December 16, 2019 (GMT -0500)
Albany International

Weather History for KALB - October, 2019

Change the Weather History Date:

Saturday, October 5, 2019

  Actual Average Record
Temperature  
Mean Temperature 47 °F 54 °F  
Max Temperature 59 °F 64 °F 91 °F (1941)
Min Temperature 34 °F 43 °F 26 °F (1965)
Degree Days  
Heating Degree Days 18 12  
Month to date heating degree days 52 54  
Since 1 July heating degree days 129 221  
Cooling Degree Days 0 0  
Month to date cooling degree days 4 0  
Year to date cooling degree days 771 594  
Moisture  
Dew Point 34 °F    
Average Humidity 65    
Maximum Humidity 89    
Minimum Humidity 40    
Precipitation  
Precipitation 0.00 in 0.12 in 1.48 in (1995)
Month to date precipitation 1.04 0.60  
Year to date precipitation 32.25 30.05  
Snow  
Snow 0.00 in 0.00 in 0.00 in ()
Month to date snowfall 0.0 0.0  
Since 1 July snowfall 0.0 0.0  
Since 1 September snowfall 0.0 0.0  
Snow Depth 0.00 in    
Sea Level Pressure  
Sea Level Pressure 30.43 in    
Wind  
Wind Speed 3 mph (NNE)    
Max Wind Speed 12 mph    
Max Gust Speed 16 mph    
Visibility 10 miles    
Events Fog    
T = Trace of Precipitation, MM = Missing Value Source: NWS Daily Summary

Daily Weather History Graph

Daily Weather History Graph

Search for Another Location

Airport or City:

Astronomy

Oct. 05, 2019 Rise Set
Actual Time 6:56 AM EDT 6:29 PM EDT
Civil Twilight 6:28 AM EDT 6:58 PM EDT
Nautical Twilight 5:55 AM EDT 7:30 PM EDT
Astronomical Twilight 5:22 AM EDT 8:03 PM EDT
Moon 2:27 PM EDT (10/5) 11:43 PM EDT (10/5)
Length of Visible Light 12h 29m
Length of Day
11h 33m
Waxing Crescent, 50% of the Moon is Illuminated
Oct 5
Waxing Crescent
Oct 5
First Quarter
Oct 13
Full
Oct 21
Last Quarter
Oct 27
New

Hourly Weather History & Observations

Time (EDT) Temp. Windchill Dew Point Humidity Pressure Visibility Wind Dir Wind Speed Gust Speed Precip Events Conditions
12:51 AM 41.0 °F 38.0 °F 33.1 °F 73% 30.41 in 10.0 mi North 4.6 mph - N/A   Clear
1:51 AM 39.9 °F - 33.1 °F 77% 30.44 in 10.0 mi Calm Calm - N/A   Clear
2:51 AM 37.0 °F - 33.1 °F 86% 30.45 in 10.0 mi Calm Calm - N/A   Clear
3:51 AM 36.0 °F - 32.0 °F 86% 30.45 in 10.0 mi Calm Calm - N/A   Clear
4:51 AM 36.0 °F - 32.0 °F 86% 30.47 in 10.0 mi Calm Calm - N/A   Clear
5:51 AM 37.0 °F 31.6 °F 32.0 °F 82% 30.47 in 10.0 mi North 6.9 mph - N/A   Clear
6:51 AM 36.0 °F - 32.0 °F 86% 30.48 in 10.0 mi Calm Calm - N/A Fog Patches of Fog
7:51 AM 37.0 °F 34.5 °F 33.1 °F 86% 30.50 in 10.0 mi ESE 3.5 mph - N/A   Clear
8:51 AM 42.1 °F - 35.1 °F 76% 30.51 in 10.0 mi Calm Calm - N/A   Partly Cloudy
9:51 AM 45.0 °F - 36.0 °F 71% 30.51 in 10.0 mi Calm Calm - N/A   Partly Cloudy
10:51 AM 50.0 °F - 35.1 °F 57% 30.51 in 10.0 mi NNW 5.8 mph - N/A   Partly Cloudy
11:51 AM 52.0 °F - 35.1 °F 53% 30.49 in 10.0 mi NNW 6.9 mph - N/A   Partly Cloudy
12:51 PM 54.0 °F - 35.1 °F 49% 30.48 in 10.0 mi North 6.9 mph - N/A   Partly Cloudy
1:51 PM 55.9 °F - 35.1 °F 45% 30.45 in 10.0 mi Variable 5.8 mph - N/A   Partly Cloudy
2:51 PM 57.0 °F - 34.0 °F 42% 30.42 in 10.0 mi Variable 3.5 mph - N/A   Partly Cloudy
3:51 PM 57.0 °F - 33.1 °F 40% 30.40 in 10.0 mi Variable 3.5 mph - N/A   Partly Cloudy
4:51 PM 57.0 °F - 33.1 °F 40% 30.38 in 10.0 mi SE 6.9 mph - N/A   Partly Cloudy
5:51 PM 55.9 °F - 32.0 °F 40% 30.37 in 10.0 mi SSE 4.6 mph - N/A   Partly Cloudy
6:51 PM 52.0 °F - 37.9 °F 59% 30.38 in 10.0 mi Calm Calm - N/A   Partly Cloudy
7:51 PM 46.9 °F - 37.9 °F 71% 30.37 in 10.0 mi Calm Calm - N/A   Partly Cloudy
8:51 PM 45.0 °F - 37.0 °F 74% 30.37 in 10.0 mi Calm Calm - N/A   Partly Cloudy
9:51 PM 42.1 °F - 36.0 °F 79% 30.36 in 10.0 mi Calm Calm - N/A   Scattered Clouds
10:51 PM 42.1 °F - 36.0 °F 79% 30.37 in 10.0 mi Calm Calm - N/A   Mostly Cloudy
11:51 PM 43.0 °F 40.3 °F 35.1 °F 74% 30.36 in 10.0 mi South 4.6 mph - N/A   Mostly Cloudy